Year,Month,Day,Hour,Minute,Value (Times are PST for temperature in C)
2015,07,05,00,00,18.60
2015,07,05,00,01,18.60
2015,07,05,00,02,18.60
2015,07,05,00,03,18.50
2015,07,05,00,04,18.50
2015,07,05,00,05,18.50
2015,07,05,00,06,18.40
2015,07,05,00,07,18.40
2015,07,05,00,08,18.40
2015,07,05,00,09,18.40
2015,07,05,00,10,18.30
2015,07,05,00,11,18.30
2015,07,05,00,12,18.30
2015,07,05,00,13,18.30
2015,07,05,00,14,18.20
2015,07,05,00,15,18.20
2015,07,05,00,16,18.20
2015,07,05,00,17,18.20
2015,07,05,00,18,18.10
2015,07,05,00,19,18.10
2015,07,05,00,20,18.10
2015,07,05,00,21,18.10
2015,07,05,00,22,18.00
2015,07,05,00,23,18.00
2015,07,05,00,24,18.00
2015,07,05,00,25,17.90
2015,07,05,00,26,17.90
2015,07,05,00,27,17.90
2015,07,05,00,28,17.90
2015,07,05,00,29,17.80
2015,07,05,00,30,17.80
2015,07,05,00,31,17.80
2015,07,05,00,32,17.80
2015,07,05,00,33,17.80
2015,07,05,00,34,17.80
2015,07,05,00,35,17.70
2015,07,05,00,36,17.70
2015,07,05,00,37,17.70
2015,07,05,00,38,17.70
2015,07,05,00,39,17.70
2015,07,05,00,40,17.70
2015,07,05,00,41,17.60
2015,07,05,00,42,17.60
2015,07,05,00,43,17.60
2015,07,05,00,44,17.60
2015,07,05,00,45,17.60
2015,07,05,00,46,17.50
2015,07,05,00,47,17.50
2015,07,05,00,48,17.50
2015,07,05,00,49,17.50
2015,07,05,00,50,17.50
2015,07,05,00,51,17.40
2015,07,05,00,52,17.40
2015,07,05,00,53,17.40
2015,07,05,00,54,17.40
2015,07,05,00,55,17.40
2015,07,05,00,56,17.40
2015,07,05,00,57,17.30
2015,07,05,00,58,17.30
2015,07,05,00,59,17.30
2015,07,05,01,00,17.30
2015,07,05,01,01,17.30
2015,07,05,01,02,17.30
2015,07,05,01,03,17.30
2015,07,05,01,04,17.30
2015,07,05,01,05,17.30
2015,07,05,01,06,17.20
2015,07,05,01,07,17.20
2015,07,05,01,08,17.20
2015,07,05,01,09,17.20
2015,07,05,01,10,17.20
2015,07,05,01,11,17.20
2015,07,05,01,12,17.20
2015,07,05,01,13,17.10
2015,07,05,01,14,17.10
2015,07,05,01,15,17.10
2015,07,05,01,16,17.10
2015,07,05,01,17,17.10
2015,07,05,01,18,17.10
2015,07,05,01,19,17.10
2015,07,05,01,20,17.00
2015,07,05,01,21,17.00
2015,07,05,01,22,17.00
2015,07,05,01,23,17.00
2015,07,05,01,24,16.90
2015,07,05,01,25,16.90
2015,07,05,01,26,16.90
2015,07,05,01,27,16.90
2015,07,05,01,28,16.90
2015,07,05,01,29,16.80
2015,07,05,01,30,16.80
2015,07,05,01,31,16.80
2015,07,05,01,32,16.80
2015,07,05,01,33,16.80
2015,07,05,01,34,16.80
2015,07,05,01,35,16.80
2015,07,05,01,36,16.80
2015,07,05,01,37,16.80
2015,07,05,01,38,16.80
2015,07,05,01,39,16.70
2015,07,05,01,40,16.70
2015,07,05,01,41,16.70
2015,07,05,01,42,16.70
2015,07,05,01,43,16.70
2015,07,05,01,44,16.70
2015,07,05,01,45,16.70
2015,07,05,01,46,16.70
2015,07,05,01,47,16.70
2015,07,05,01,48,16.60
2015,07,05,01,49,16.70
2015,07,05,01,50,16.60
2015,07,05,01,51,16.60
2015,07,05,01,52,16.60
2015,07,05,01,53,16.60
2015,07,05,01,54,16.60
2015,07,05,01,55,16.60
2015,07,05,01,56,16.60
2015,07,05,01,57,16.50
2015,07,05,01,58,16.50
2015,07,05,01,59,16.50
2015,07,05,02,00,16.50
2015,07,05,02,01,16.50
2015,07,05,02,02,16.40
2015,07,05,02,03,16.40
2015,07,05,02,04,16.40
2015,07,05,02,05,16.40
2015,07,05,02,06,16.40
2015,07,05,02,07,16.40
2015,07,05,02,08,16.40
2015,07,05,02,09,16.40
2015,07,05,02,10,16.40
2015,07,05,02,11,16.40
2015,07,05,02,12,16.40
2015,07,05,02,13,16.40
2015,07,05,02,14,16.40
2015,07,05,02,15,16.30
2015,07,05,02,16,16.30
2015,07,05,02,17,16.30
2015,07,05,02,18,16.30
2015,07,05,02,19,16.30
2015,07,05,02,20,16.30
2015,07,05,02,21,16.30
2015,07,05,02,22,16.30
2015,07,05,02,23,16.30
2015,07,05,02,24,16.30
2015,07,05,02,25,16.30
2015,07,05,02,26,16.30
2015,07,05,02,27,16.30
2015,07,05,02,28,16.30
2015,07,05,02,29,16.30
2015,07,05,02,30,16.30
2015,07,05,02,31,16.20
2015,07,05,02,32,16.20
2015,07,05,02,33,16.20
2015,07,05,02,34,16.20
2015,07,05,02,35,16.20
2015,07,05,02,36,16.20
2015,07,05,02,37,16.10
2015,07,05,02,38,16.10
2015,07,05,02,39,16.10
2015,07,05,02,40,16.10
2015,07,05,02,41,16.10
2015,07,05,02,42,16.00
2015,07,05,02,43,16.00
2015,07,05,02,44,16.00
2015,07,05,02,45,16.00
2015,07,05,02,46,15.90
2015,07,05,02,47,15.90
2015,07,05,02,48,15.90
2015,07,05,02,49,16.00
2015,07,05,02,50,16.00
2015,07,05,02,51,16.00
2015,07,05,02,52,16.00
2015,07,05,02,53,15.90
2015,07,05,02,54,15.90
2015,07,05,02,55,15.90
2015,07,05,02,56,15.90
2015,07,05,02,57,15.90
2015,07,05,02,58,15.90
2015,07,05,02,59,15.80
2015,07,05,03,00,15.80
2015,07,05,03,01,15.80
2015,07,05,03,02,15.80
2015,07,05,03,06,15.70
2015,07,05,03,07,15.70
2015,07,05,03,08,15.70
2015,07,05,03,09,15.70
2015,07,05,03,10,15.70
2015,07,05,03,11,15.70
2015,07,05,03,12,15.70
2015,07,05,03,13,15.70
2015,07,05,03,14,15.70
2015,07,05,03,15,15.70
2015,07,05,03,16,15.70
2015,07,05,03,17,15.70
2015,07,05,03,18,15.70
2015,07,05,03,19,15.70
2015,07,05,03,20,15.70
2015,07,05,03,21,15.70
2015,07,05,03,22,15.70
2015,07,05,03,23,15.70
2015,07,05,03,24,15.70
2015,07,05,03,25,15.60
2015,07,05,03,26,15.60
2015,07,05,03,27,15.60
2015,07,05,03,28,15.60
2015,07,05,03,29,15.60
2015,07,05,03,30,15.60
2015,07,05,03,31,15.60
2015,07,05,03,32,15.60
2015,07,05,03,33,15.60
2015,07,05,03,34,15.50
2015,07,05,03,35,15.50
2015,07,05,03,36,15.50
2015,07,05,03,37,15.50
2015,07,05,03,38,15.50
2015,07,05,03,39,15.50
2015,07,05,03,40,15.50
2015,07,05,03,41,15.50
2015,07,05,03,42,15.50
2015,07,05,03,43,15.60
2015,07,05,03,44,15.60
2015,07,05,03,45,15.60
2015,07,05,03,46,15.50
2015,07,05,03,47,15.50
2015,07,05,03,48,15.50
2015,07,05,03,49,15.50
2015,07,05,03,50,15.50
2015,07,05,03,51,15.50
2015,07,05,03,52,15.50
2015,07,05,03,53,15.50
2015,07,05,03,54,15.40
2015,07,05,03,55,15.40
2015,07,05,03,56,15.40
2015,07,05,03,57,15.40
2015,07,05,03,58,15.40
2015,07,05,03,59,15.50
2015,07,05,04,00,15.50
2015,07,05,04,01,15.50
2015,07,05,04,02,15.50
2015,07,05,04,03,15.50
2015,07,05,04,04,15.50
2015,07,05,04,05,15.50
2015,07,05,04,06,15.40
2015,07,05,04,07,15.40
2015,07,05,04,08,15.50
2015,07,05,04,09,15.50
2015,07,05,04,10,15.50
2015,07,05,04,11,15.50
2015,07,05,04,12,15.50
2015,07,05,04,13,15.50
2015,07,05,04,14,15.50
2015,07,05,04,15,15.50
2015,07,05,04,16,15.50
2015,07,05,04,17,15.50
2015,07,05,04,18,15.50
2015,07,05,04,19,15.50
2015,07,05,04,20,15.40
2015,07,05,04,21,15.50
2015,07,05,04,22,15.40
2015,07,05,04,23,15.50
2015,07,05,04,24,15.50
2015,07,05,04,25,15.50
2015,07,05,04,26,15.50
2015,07,05,04,27,15.50
2015,07,05,04,28,15.50
2015,07,05,04,29,15.50
2015,07,05,04,30,15.50
2015,07,05,04,31,15.50
2015,07,05,04,32,15.50
2015,07,05,04,33,15.60
2015,07,05,04,34,15.60
2015,07,05,04,35,15.60
2015,07,05,04,36,15.60
2015,07,05,04,37,15.60
2015,07,05,04,38,15.60
2015,07,05,04,39,15.60
2015,07,05,04,40,15.60
2015,07,05,04,41,15.60
2015,07,05,04,42,15.60
2015,07,05,04,43,15.60
2015,07,05,04,44,15.60
2015,07,05,04,45,15.60
2015,07,05,04,46,15.60
2015,07,05,04,47,15.60
2015,07,05,04,48,15.60
2015,07,05,04,49,15.60
2015,07,05,04,50,15.60
2015,07,05,04,51,15.60
2015,07,05,04,52,15.60
2015,07,05,04,53,15.60
2015,07,05,04,54,15.60
2015,07,05,04,55,15.60
2015,07,05,04,56,15.60
2015,07,05,04,57,15.60
2015,07,05,04,58,15.60
2015,07,05,04,59,15.60
2015,07,05,05,00,15.60
2015,07,05,05,01,15.60
2015,07,05,05,02,15.60
2015,07,05,05,03,15.60
2015,07,05,05,04,15.60
2015,07,05,05,05,15.50
2015,07,05,05,06,15.60
2015,07,05,05,07,15.60
2015,07,05,05,08,15.50
2015,07,05,05,09,15.50
2015,07,05,05,10,15.50
2015,07,05,05,11,15.50
2015,07,05,05,12,15.50
2015,07,05,05,13,15.50
2015,07,05,05,14,15.60
2015,07,05,05,15,15.60
2015,07,05,05,16,15.60
2015,07,05,05,17,15.60
2015,07,05,05,18,15.70
2015,07,05,05,19,15.70
2015,07,05,05,20,15.70
2015,07,05,05,21,15.70
2015,07,05,05,22,15.60
2015,07,05,05,23,15.60
2015,07,05,05,24,15.60
2015,07,05,05,25,15.60
2015,07,05,05,26,15.60
2015,07,05,05,27,15.60
2015,07,05,05,28,15.60
2015,07,05,05,29,15.60
2015,07,05,05,30,15.50
2015,07,05,05,31,15.50
2015,07,05,05,32,15.50
2015,07,05,05,33,15.50
2015,07,05,05,34,15.50
2015,07,05,05,35,15.40
2015,07,05,05,36,15.40
2015,07,05,05,37,15.40
2015,07,05,05,38,15.40
2015,07,05,05,39,15.40
2015,07,05,05,40,15.40
2015,07,05,05,41,15.40
2015,07,05,05,42,15.40
2015,07,05,05,43,15.40
2015,07,05,05,44,15.40
2015,07,05,05,45,15.40
2015,07,05,05,46,15.40
2015,07,05,05,47,15.40
2015,07,05,05,48,15.50
2015,07,05,05,49,15.50
2015,07,05,05,50,15.60
2015,07,05,05,51,15.60
2015,07,05,05,52,15.60
2015,07,05,05,53,15.60
2015,07,05,05,54,15.70
2015,07,05,05,55,15.70
2015,07,05,05,56,15.70
2015,07,05,05,57,15.70
2015,07,05,05,58,15.70
2015,07,05,05,59,15.70
2015,07,05,06,00,15.70
2015,07,05,06,01,15.70
2015,07,05,06,02,15.70
2015,07,05,06,03,15.70
2015,07,05,06,04,15.70
2015,07,05,06,05,15.70
2015,07,05,06,06,15.70
2015,07,05,06,07,15.70
2015,07,05,06,08,15.70
2015,07,05,06,09,15.70
2015,07,05,06,10,15.70
2015,07,05,06,11,15.70
2015,07,05,06,12,15.70
2015,07,05,06,13,15.70
2015,07,05,06,14,15.70
2015,07,05,06,15,15.70
2015,07,05,06,16,15.70
2015,07,05,06,17,15.80
2015,07,05,06,18,15.80
2015,07,05,06,19,15.80
2015,07,05,06,20,15.90
2015,07,05,06,21,15.90
2015,07,05,06,22,15.90
2015,07,05,06,23,15.90
2015,07,05,06,24,15.90
2015,07,05,06,25,16.00
2015,07,05,06,26,16.00
2015,07,05,06,27,16.10
2015,07,05,06,28,16.10
2015,07,05,06,29,16.10
2015,07,05,06,30,16.10
2015,07,05,06,31,16.20
2015,07,05,06,32,16.20
2015,07,05,06,33,16.20
2015,07,05,06,34,16.20
2015,07,05,06,35,16.20
2015,07,05,06,36,16.30
2015,07,05,06,37,16.40
2015,07,05,06,38,16.50
2015,07,05,06,39,16.50
2015,07,05,06,40,16.60
2015,07,05,06,41,16.70
2015,07,05,06,42,16.70
2015,07,05,06,43,16.70
2015,07,05,06,44,16.80
2015,07,05,06,45,16.90
2015,07,05,06,46,16.90
2015,07,05,06,47,17.00
2015,07,05,06,48,17.10
2015,07,05,06,49,17.20
2015,07,05,06,50,17.20
2015,07,05,06,51,17.20
2015,07,05,06,52,17.30
2015,07,05,06,53,17.30
2015,07,05,06,54,17.40
2015,07,05,06,55,17.50
2015,07,05,06,56,17.50
2015,07,05,06,57,17.60
2015,07,05,06,58,17.70
2015,07,05,06,59,17.70
2015,07,05,07,00,17.80
2015,07,05,07,01,17.90
2015,07,05,07,02,18.00
2015,07,05,07,03,18.00
2015,07,05,07,04,18.10
2015,07,05,07,05,18.20
2015,07,05,07,06,18.20
2015,07,05,07,07,18.30
2015,07,05,07,08,18.40
2015,07,05,07,09,18.50
2015,07,05,07,10,18.60
2015,07,05,07,11,18.70
2015,07,05,07,12,18.80
2015,07,05,07,13,19.00
2015,07,05,07,14,19.10
2015,07,05,07,15,19.20
2015,07,05,07,16,19.30
2015,07,05,07,17,19.40
2015,07,05,07,18,19.60
2015,07,05,07,19,19.70
2015,07,05,07,20,19.80
2015,07,05,07,21,19.90
2015,07,05,07,22,20.00
2015,07,05,07,23,20.10
2015,07,05,07,24,20.20
2015,07,05,07,25,20.20
2015,07,05,07,26,20.30
2015,07,05,07,27,20.40
2015,07,05,07,28,20.50
2015,07,05,07,29,20.60
2015,07,05,07,30,20.60
2015,07,05,07,31,20.70
2015,07,05,07,32,20.70
2015,07,05,07,33,20.80
2015,07,05,07,34,20.80
2015,07,05,07,35,20.90
2015,07,05,07,36,21.00
2015,07,05,07,37,21.00
2015,07,05,07,38,21.10
2015,07,05,07,39,21.20
2015,07,05,07,40,21.20
2015,07,05,07,41,21.30
2015,07,05,07,42,21.40
2015,07,05,07,43,21.50
2015,07,05,07,44,21.60
2015,07,05,07,45,21.70
2015,07,05,07,46,21.80
2015,07,05,07,47,21.90
2015,07,05,07,48,22.10
2015,07,05,07,49,22.20
2015,07,05,07,50,22.30
2015,07,05,07,51,22.40
2015,07,05,07,52,22.50
2015,07,05,07,53,22.60
2015,07,05,07,54,22.70
2015,07,05,07,55,22.80
2015,07,05,07,56,22.80
2015,07,05,07,57,22.90
2015,07,05,07,58,23.00
2015,07,05,07,59,23.00
2015,07,05,08,00,23.10
2015,07,05,08,01,23.10
2015,07,05,08,02,23.20
2015,07,05,08,03,23.30
2015,07,05,08,04,23.30
2015,07,05,08,05,23.40
2015,07,05,08,06,23.40
2015,07,05,08,07,23.50
2015,07,05,08,08,23.60
2015,07,05,08,09,23.60
2015,07,05,08,10,23.70
2015,07,05,08,11,23.70
2015,07,05,08,12,23.80
2015,07,05,08,13,23.90
2015,07,05,08,14,23.90
2015,07,05,08,15,24.00
2015,07,05,08,16,24.10
2015,07,05,08,17,24.10
2015,07,05,08,18,24.20
2015,07,05,08,19,24.20
2015,07,05,08,20,24.30
2015,07,05,08,21,24.40
2015,07,05,08,22,24.50
2015,07,05,08,23,24.60
2015,07,05,08,24,24.60
2015,07,05,08,25,24.70
2015,07,05,08,26,24.70
2015,07,05,08,27,24.80
2015,07,05,08,28,24.80
2015,07,05,08,29,24.90
2015,07,05,08,30,24.90
2015,07,05,08,31,24.90
2015,07,05,08,32,24.90
2015,07,05,08,33,24.90
2015,07,05,08,34,24.90
2015,07,05,08,35,24.90
2015,07,05,08,36,24.90
2015,07,05,08,37,25.00
2015,07,05,08,38,25.10
2015,07,05,08,39,25.10
2015,07,05,08,40,25.10
2015,07,05,08,41,25.20
2015,07,05,08,42,25.20
2015,07,05,08,43,25.30
2015,07,05,08,44,25.30
2015,07,05,08,45,25.30
2015,07,05,08,46,25.40
2015,07,05,08,47,25.50
2015,07,05,08,48,25.60
2015,07,05,08,49,25.70
2015,07,05,08,50,25.70
2015,07,05,08,51,25.80
2015,07,05,08,52,25.90
2015,07,05,08,53,25.90
2015,07,05,08,54,25.90
2015,07,05,08,55,25.90
2015,07,05,08,56,25.90
2015,07,05,08,57,25.80
2015,07,05,08,58,25.70
2015,07,05,08,59,25.50
2015,07,05,09,00,25.40
2015,07,05,09,01,25.30
2015,07,05,09,02,25.20
2015,07,05,09,03,25.20
2015,07,05,09,04,25.20
2015,07,05,09,05,25.20
2015,07,05,09,06,25.20
2015,07,05,09,07,25.20
2015,07,05,09,08,25.20
2015,07,05,09,09,25.20
2015,07,05,09,10,25.20
2015,07,05,09,11,25.20
2015,07,05,09,12,25.30
2015,07,05,09,13,25.30
2015,07,05,09,14,25.30
2015,07,05,09,15,25.40
2015,07,05,09,16,25.40
2015,07,05,09,17,25.50
2015,07,05,09,18,25.50
2015,07,05,09,19,25.60
2015,07,05,09,20,25.60
2015,07,05,09,21,25.70
2015,07,05,09,22,25.70
2015,07,05,09,23,25.80
2015,07,05,09,24,25.90
2015,07,05,09,25,25.90
2015,07,05,09,26,26.00
2015,07,05,09,27,26.10
2015,07,05,09,28,26.10
2015,07,05,09,29,26.20
2015,07,05,09,30,26.20
2015,07,05,09,31,26.20
2015,07,05,09,32,26.20
2015,07,05,09,33,26.20
2015,07,05,09,34,26.10
2015,07,05,09,35,26.10
2015,07,05,09,36,26.20
2015,07,05,09,37,26.20
2015,07,05,09,38,26.20
2015,07,05,09,39,26.20
2015,07,05,09,40,26.30
2015,07,05,09,41,26.30
2015,07,05,09,42,26.40
2015,07,05,09,43,26.50
2015,07,05,09,44,26.50
2015,07,05,09,45,26.60
2015,07,05,09,46,26.60
2015,07,05,09,47,26.60
2015,07,05,09,48,26.70
2015,07,05,09,49,26.70
2015,07,05,09,50,26.70
2015,07,05,09,51,26.70
2015,07,05,09,52,26.70
2015,07,05,09,53,26.70
2015,07,05,09,54,26.70
2015,07,05,09,55,26.70
2015,07,05,09,56,26.70
2015,07,05,09,57,26.70
2015,07,05,09,58,26.70
2015,07,05,09,59,26.70
2015,07,05,10,00,26.80
2015,07,05,10,01,26.80
2015,07,05,10,02,26.80
2015,07,05,10,03,26.80
2015,07,05,10,04,26.80
2015,07,05,10,05,26.70
2015,07,05,10,06,26.70
2015,07,05,10,07,26.80
2015,07,05,10,08,26.80
2015,07,05,10,09,26.80
2015,07,05,10,10,26.80
2015,07,05,10,11,26.80
2015,07,05,10,12,26.80
2015,07,05,10,13,26.80
2015,07,05,10,14,26.80
2015,07,05,10,15,26.80
2015,07,05,10,16,26.80
2015,07,05,10,17,26.80
2015,07,05,10,18,26.80
2015,07,05,10,19,26.80
2015,07,05,10,20,26.80
2015,07,05,10,21,26.80
2015,07,05,10,22,26.80
2015,07,05,10,23,26.80
2015,07,05,10,24,26.80
2015,07,05,10,25,26.80
2015,07,05,10,26,26.80
2015,07,05,10,27,26.80
2015,07,05,10,28,26.80
2015,07,05,10,29,26.80
2015,07,05,10,30,26.80
2015,07,05,10,31,26.80
2015,07,05,10,32,26.80
2015,07,05,10,33,26.80
2015,07,05,10,34,26.80
2015,07,05,10,35,26.80
2015,07,05,10,36,26.80
2015,07,05,10,37,26.80
2015,07,05,10,38,26.80
2015,07,05,10,39,26.80
2015,07,05,10,40,26.80
2015,07,05,10,41,26.80
2015,07,05,10,42,26.80
2015,07,05,10,43,26.70
2015,07,05,10,44,26.70
2015,07,05,10,45,26.70
2015,07,05,10,46,26.70
2015,07,05,10,47,26.70
2015,07,05,10,48,26.70
2015,07,05,10,49,26.70
2015,07,05,10,50,26.70
2015,07,05,10,51,26.70
2015,07,05,10,52,26.70
2015,07,05,10,53,26.70
2015,07,05,10,54,26.70
2015,07,05,10,55,26.70
2015,07,05,10,56,26.70
2015,07,05,10,57,26.70
2015,07,05,10,58,26.70
2015,07,05,10,59,26.70
2015,07,05,11,00,26.70
2015,07,05,11,01,26.60
2015,07,05,11,02,26.60
2015,07,05,11,03,26.60
2015,07,05,11,04,26.50
2015,07,05,11,05,26.40
2015,07,05,11,06,26.40
2015,07,05,11,07,26.40
2015,07,05,11,08,26.40
2015,07,05,11,09,26.40
2015,07,05,11,10,26.40
2015,07,05,11,11,26.40
2015,07,05,11,12,26.40
2015,07,05,11,13,26.40
2015,07,05,11,14,26.40
2015,07,05,11,15,26.40
2015,07,05,11,16,26.40
2015,07,05,11,17,26.40
2015,07,05,11,18,26.40
2015,07,05,11,19,26.40
2015,07,05,11,20,26.40
2015,07,05,11,21,26.40
2015,07,05,11,22,26.40
2015,07,05,11,23,26.40
2015,07,05,11,24,26.40
2015,07,05,11,25,26.40
2015,07,05,11,26,26.40
2015,07,05,11,27,26.40
2015,07,05,11,28,26.40
2015,07,05,11,29,26.40
2015,07,05,11,30,26.40
2015,07,05,11,31,26.40
2015,07,05,11,32,26.40
2015,07,05,11,33,26.40
2015,07,05,11,34,26.40
2015,07,05,11,35,26.40
2015,07,05,11,36,26.40
2015,07,05,11,37,26.40
2015,07,05,11,38,26.40
2015,07,05,11,39,26.40
2015,07,05,11,40,26.30
2015,07,05,11,41,26.30
2015,07,05,11,42,26.30
2015,07,05,11,43,26.30
2015,07,05,11,44,26.30
2015,07,05,11,45,26.20
2015,07,05,11,46,26.20
2015,07,05,11,47,26.20
2015,07,05,11,48,26.20
2015,07,05,11,49,26.20
2015,07,05,11,50,26.20
2015,07,05,11,51,26.20
2015,07,05,11,52,26.20
2015,07,05,11,53,26.20
2015,07,05,11,54,26.20
2015,07,05,11,55,26.20
2015,07,05,11,56,26.20
2015,07,05,11,57,26.20
2015,07,05,11,58,26.20
2015,07,05,11,59,26.20
2015,07,05,12,00,26.30
2015,07,05,12,01,26.30
2015,07,05,12,02,26.30
2015,07,05,12,03,26.30
2015,07,05,12,04,26.30
2015,07,05,12,05,26.40
2015,07,05,12,06,26.40
2015,07,05,12,07,26.40
2015,07,05,12,08,26.50
2015,07,05,12,09,26.50
2015,07,05,12,10,26.50
2015,07,05,12,11,26.60
2015,07,05,12,12,26.60
2015,07,05,12,13,26.60
2015,07,05,12,14,26.60
2015,07,05,12,15,26.60
2015,07,05,12,16,26.60
2015,07,05,12,17,26.60
2015,07,05,12,18,26.70
2015,07,05,12,19,26.70
2015,07,05,12,20,26.70
2015,07,05,12,21,26.80
2015,07,05,12,22,26.80
2015,07,05,12,23,26.80
2015,07,05,12,24,26.90
2015,07,05,12,25,26.90
2015,07,05,12,26,26.90
2015,07,05,12,27,27.00
2015,07,05,12,28,27.00
2015,07,05,12,29,27.00
2015,07,05,12,30,27.10
2015,07,05,12,31,27.10
2015,07,05,12,32,27.10
2015,07,05,12,33,27.20
2015,07,05,12,34,27.20
2015,07,05,12,35,27.20
2015,07,05,12,36,27.20
2015,07,05,12,37,27.20
2015,07,05,12,38,27.30
2015,07,05,12,39,27.30
2015,07,05,12,40,27.30
2015,07,05,12,41,27.40
2015,07,05,12,42,27.40
2015,07,05,12,43,27.40
2015,07,05,12,44,27.40
2015,07,05,12,45,27.50
2015,07,05,12,46,27.50
2015,07,05,12,47,27.60
2015,07,05,12,48,27.60
2015,07,05,12,49,27.60
2015,07,05,12,50,27.70
2015,07,05,12,51,27.70
2015,07,05,12,52,27.80
2015,07,05,12,53,27.80
2015,07,05,12,54,27.80
2015,07,05,12,55,27.90
2015,07,05,12,56,27.90
2015,07,05,12,57,28.00
2015,07,05,12,58,28.10
2015,07,05,12,59,28.10
2015,07,05,13,00,28.10
2015,07,05,13,01,28.10
2015,07,05,13,02,28.10
2015,07,05,13,03,28.10
2015,07,05,13,04,28.10
2015,07,05,13,05,28.10
2015,07,05,13,06,28.10
2015,07,05,13,07,28.10
2015,07,05,13,08,28.10
2015,07,05,13,09,28.10
2015,07,05,13,10,28.10
2015,07,05,13,11,28.10
2015,07,05,13,12,28.10
2015,07,05,13,13,28.10
2015,07,05,13,14,28.10
2015,07,05,13,15,28.20
2015,07,05,13,16,28.20
2015,07,05,13,17,28.30
2015,07,05,13,18,28.30
2015,07,05,13,19,28.40
2015,07,05,13,20,28.40
2015,07,05,13,21,28.50
2015,07,05,13,22,28.50
2015,07,05,13,23,28.60
2015,07,05,13,24,28.60
2015,07,05,13,25,28.60
2015,07,05,13,26,28.70
2015,07,05,13,27,28.70
2015,07,05,13,28,28.70
2015,07,05,13,29,28.80
2015,07,05,13,30,28.80
2015,07,05,13,31,28.80
2015,07,05,13,32,28.80
2015,07,05,13,33,28.80
2015,07,05,13,34,28.80
2015,07,05,13,35,28.90
2015,07,05,13,36,28.80
2015,07,05,13,37,28.70
2015,07,05,13,38,28.60
2015,07,05,13,39,28.50
2015,07,05,13,40,28.40
2015,07,05,13,41,28.30
2015,07,05,13,42,28.30
2015,07,05,13,43,28.30
2015,07,05,13,44,28.30
2015,07,05,13,45,28.40
2015,07,05,13,46,28.30
2015,07,05,13,47,28.20
2015,07,05,13,48,28.20
2015,07,05,13,49,28.20
2015,07,05,13,50,28.20
2015,07,05,13,51,28.10
2015,07,05,13,52,28.10
2015,07,05,13,53,28.10
2015,07,05,13,54,28.10
2015,07,05,13,55,28.20
2015,07,05,13,56,28.20
2015,07,05,13,57,28.30
2015,07,05,13,58,28.40
2015,07,05,13,59,28.50
2015,07,05,14,00,28.60
2015,07,05,14,01,28.70
2015,07,05,14,02,28.80
2015,07,05,14,03,28.80
2015,07,05,14,04,28.90
2015,07,05,14,05,29.00
2015,07,05,14,06,29.00
2015,07,05,14,07,29.10
2015,07,05,14,08,29.10
2015,07,05,14,09,29.10
2015,07,05,14,10,29.10
2015,07,05,14,11,29.10
2015,07,05,14,12,29.10
2015,07,05,14,13,29.10
2015,07,05,14,14,29.10
2015,07,05,14,15,29.10
2015,07,05,14,16,29.10
2015,07,05,14,17,29.10
2015,07,05,14,18,29.00
2015,07,05,14,19,29.00
2015,07,05,14,20,29.00
2015,07,05,14,21,29.10
2015,07,05,14,22,29.10
2015,07,05,14,23,29.10
2015,07,05,14,24,29.10
2015,07,05,14,25,29.10
2015,07,05,14,26,29.10
2015,07,05,14,27,29.20
2015,07,05,14,28,29.20
2015,07,05,14,29,29.20
2015,07,05,14,30,29.20
2015,07,05,14,31,29.10
2015,07,05,14,32,29.00
2015,07,05,14,33,28.90
2015,07,05,14,34,28.90
2015,07,05,14,35,28.90
2015,07,05,14,36,28.90
2015,07,05,14,37,28.90
2015,07,05,14,38,28.80
2015,07,05,14,39,28.70
2015,07,05,14,40,28.70
2015,07,05,14,41,28.70
2015,07,05,14,42,28.70
2015,07,05,14,43,28.70
2015,07,05,14,44,28.80
2015,07,05,14,45,28.80
2015,07,05,14,46,28.90
2015,07,05,14,47,29.00
2015,07,05,14,48,29.10
2015,07,05,14,49,29.20
2015,07,05,14,50,29.20
2015,07,05,14,51,29.10
2015,07,05,14,52,29.20
2015,07,05,14,53,29.20
2015,07,05,14,54,29.30
2015,07,05,14,55,29.30
2015,07,05,14,56,29.20
2015,07,05,14,57,29.10
2015,07,05,14,58,29.10
2015,07,05,14,59,29.00
2015,07,05,15,00,28.90
2015,07,05,15,01,28.90
2015,07,05,15,02,29.00
2015,07,05,15,03,29.10
2015,07,05,15,04,29.10
2015,07,05,15,05,29.10
2015,07,05,15,06,29.20
2015,07,05,15,07,29.20
2015,07,05,15,08,29.20
2015,07,05,15,09,29.30
2015,07,05,15,10,29.30
2015,07,05,15,11,29.40
2015,07,05,15,12,29.50
2015,07,05,15,13,29.50
2015,07,05,15,14,29.60
2015,07,05,15,15,29.60
2015,07,05,15,16,29.60
2015,07,05,15,17,29.60
2015,07,05,15,18,29.60
2015,07,05,15,19,29.60
2015,07,05,15,20,29.60
2015,07,05,15,21,29.70
2015,07,05,15,22,29.70
2015,07,05,15,23,29.80
2015,07,05,15,24,29.80
2015,07,05,15,25,29.90
2015,07,05,15,26,29.90
2015,07,05,15,27,30.00
2015,07,05,15,28,30.00
2015,07,05,15,29,29.90
2015,07,05,15,30,29.90
2015,07,05,15,31,29.90
2015,07,05,15,32,29.90
2015,07,05,15,33,30.00
2015,07,05,15,34,30.00
2015,07,05,15,35,30.10
2015,07,05,15,36,30.20
2015,07,05,15,37,30.30
2015,07,05,15,38,30.30
2015,07,05,15,39,30.40
2015,07,05,15,40,30.50
2015,07,05,15,41,30.50
2015,07,05,15,42,30.60
2015,07,05,15,43,30.60
2015,07,05,15,44,30.60
2015,07,05,15,45,30.60
2015,07,05,15,46,30.70
2015,07,05,15,47,30.70
2015,07,05,15,48,30.80
2015,07,05,15,49,30.80
2015,07,05,15,50,30.90
2015,07,05,15,51,30.90
2015,07,05,15,52,31.00
2015,07,05,15,53,31.00
2015,07,05,15,54,31.10
2015,07,05,15,55,31.10
2015,07,05,15,56,31.20
2015,07,05,15,57,31.20
2015,07,05,15,58,31.30
2015,07,05,15,59,31.30
2015,07,05,16,00,31.40
2015,07,05,16,01,31.50
2015,07,05,16,02,31.50
2015,07,05,16,03,31.50
2015,07,05,16,04,31.60
2015,07,05,16,05,31.60
2015,07,05,16,06,31.60
2015,07,05,16,07,31.60
2015,07,05,16,08,31.50
2015,07,05,16,09,31.30
2015,07,05,16,10,31.10
2015,07,05,16,11,31.10
2015,07,05,16,12,31.00
2015,07,05,16,13,31.00
2015,07,05,16,14,31.00
2015,07,05,16,15,31.00
2015,07,05,16,16,31.00
2015,07,05,16,17,31.10
2015,07,05,16,18,31.10
2015,07,05,16,19,31.20
2015,07,05,16,20,31.20
2015,07,05,16,21,31.30
2015,07,05,16,22,31.30
2015,07,05,16,23,31.30
2015,07,05,16,24,31.30
2015,07,05,16,25,31.30
2015,07,05,16,26,31.20
2015,07,05,16,27,31.20
2015,07,05,16,28,31.10
2015,07,05,16,29,31.10
2015,07,05,16,30,31.10
2015,07,05,16,31,31.00
2015,07,05,16,32,30.90
2015,07,05,16,33,30.90
2015,07,05,16,34,30.80
2015,07,05,16,35,30.80
2015,07,05,16,36,30.80
2015,07,05,16,37,30.80
2015,07,05,16,38,30.80
2015,07,05,16,39,30.80
2015,07,05,16,40,30.80
2015,07,05,16,41,30.80
2015,07,05,16,42,30.70
2015,07,05,16,43,30.60
2015,07,05,16,44,30.60
2015,07,05,16,45,30.50
2015,07,05,16,46,30.50
2015,07,05,16,47,30.50
2015,07,05,16,48,30.50
2015,07,05,16,49,30.50
2015,07,05,16,50,30.50
2015,07,05,16,51,30.50
2015,07,05,16,52,30.40
2015,07,05,16,53,30.40
2015,07,05,16,54,30.30
2015,07,05,16,55,30.30
2015,07,05,16,56,30.30
2015,07,05,16,57,30.30
2015,07,05,16,58,30.30
2015,07,05,16,59,30.30
2015,07,05,17,00,30.20
2015,07,05,17,01,30.20
2015,07,05,17,02,30.10
2015,07,05,17,03,30.10
2015,07,05,17,04,30.10
2015,07,05,17,05,30.10
2015,07,05,17,06,30.00
2015,07,05,17,07,30.00
2015,07,05,17,08,29.90
2015,07,05,17,09,29.90
2015,07,05,17,10,29.90
2015,07,05,17,11,29.90
2015,07,05,17,12,29.90
2015,07,05,17,13,29.90
2015,07,05,17,14,29.80
2015,07,05,17,15,29.80
2015,07,05,17,16,29.80
2015,07,05,17,17,29.80
2015,07,05,17,18,29.80
2015,07,05,17,19,29.70
2015,07,05,17,20,29.70
2015,07,05,17,21,29.70
2015,07,05,17,22,29.70